STARLINK-1934, 46792

Orbit data source: Space-Track

STARLINK-1934, 46792 is a payload satellite owned by SpaceX/Seattle (US) in LEO that was launched on Sat, 24 Oct 2020 UTC via an FALCON 9 launch vehicle from the Air Force Eastern Test Range (AFETR). Payload-class satellites include a variety of spacecraft equipped with specific instruments for various scientific and technological missions. These include communications satellites like Starlink; space stations such as the ISS; scientific satellites like the Hubble; Earth observation satellites from companies like Planet Labs, Umbra, and HawkEye 360; GPS; miniature CubeSats for education and research; and military/defense satellites.

Loading next visibility...
Identifier
46792, 2020-074BF
Orbit
LEO
Country
Flag of USUS
Related business
Manufacturer
SpaceX/Seattle
Mission
Operational Commercial Communications
Bus & Motor
STARLINK, Unknown motor
Mass
260 kg wet, ~248 kg dry
Launch date (UTC)
2020-10-24 (5 years ago)
Launch vehicle
FALCON 9
Launch site
Air Force Eastern Test Range (AFETR)
Object type
Payload
Rocket body
Debris
Shape & HBR
Box + 1 Pan, 10.1 m
Radar Cross Section
13.562 m², Large (>1 m²)

Expand to show TLE details & history
Last TLE update: 8 hours ago

TLE from 8 hours ago
0 STARLINK-1934
1 46792U 20074BF  25298.00002315  .01551473  00000-0  82139-1 0  9998
2 46792  53.0541 200.6985 0001391  61.5422 302.7761 15.12065085  5646
Epoch: 2025-10-25T00:00Z
TLE epoch observation values (Epoch: 2025-10-25T00:00:02.000Z)
Latitude
3.38087°
Longitude
169.58577°
Altitude
529.889 km
Speed
7.6 km/s
True Right ascension
13h 32m 55s
True Declination
3° 21' 36"
Sunlit
Object was in daylight at epoch
Visualization orbit readout
Latitude
Unknown
Longitude
Unknown
Altitude
Unknown
Speed
Unknown
Apparent Right ascension
Unknown
Apparent Declination
Unknown
Sunlit
N/A
Visualization observer readout
Local Sidereal Time
03:11:18
Azimuth
Unknown
Elevation
Unknown
Doppler factor
Unknown
Orbital elements
Apogee altitude
531.136 km
Perigee altitude
529.214 km
Semi-major axis
6,908.312 km
Eccentricity
0.00014
Inclination
53.0541°
RAAN
200.6985°
Arg. of periapsis
61.5422°
True anomaly
302.7627°
Mean anomaly
302.7761°
Eccentric anomaly
302.7694°
Mean motion
3.77994 °/min
Orbital period
95.24 mins
BSTAR
0.082139
Loading maneuver chart data...
Computing Atmospheric mass density...

Documentation

Showing up to 5 results
|